User: anonymous   Login
Location: Deer Lake
(49.1830°N, 57.4330°W)
Time: 23:21:58
(UTC-02:-30)
Language:

Cosmos 1707 - Orbit

View from above orbital plane
View from above orbital plane
View from above satellite
View from above satellite

Ground track
Ground track

The orbit data is extracted from the following two-line orbital elements,

1 16326U 85113A   16180.14142238  .00000457  00000-0  24279-4 0  9991
2 16326  82.5101 195.9748 0012836  85.2360 275.0336 15.12678678663815
Epoch (UTC): 28 June 2016 03:23:38
Eccentricity: 0.0012836
inclination: 82.5101°
perigee height: 519 km
apogee height: 537 km
right ascension of ascending node: 195.9748°
argument of perigee: 85.2360°
revolutions per day: 15.12678678
mean anomaly at epoch: 275.0336°
orbit number at epoch: 66381

The dashed part of the orbit path shows where the satellite is in the earth's shadow,  

DLR